Weather in Dangjin

South Korea     36°53′38″N   126°37′50″E
temp.,
°C
wind,
m/s
gust,
m/s
humid.,
%
clouds,
%
prec.,
mm/h
press.,
hPa
HPBL,
m
8 may, sat
sat800:00+10ssw49760 0.0 1009215
03:00+9sse47790 0.0 1008168
06:00+8sse47780 0.0 1007184
09:00+14ssw610580 0.0 1006347
12:00+17ssw1014470 0.0 1004485
15:00+17sw1218462 0.0 1001567
18:00+14wsw10147795 0.0 1002553
21:00+12w610770 0.0 1005172
9 may, sun
sun900:00+11w58760 0.0 1007156
03:00+10wsw47780 0.0 1008113
06:00+10sw48730 0.0 1009147
09:00+14w713645 0.0 1010349
12:00+14wnw814574 0.0 1011431
15:00+14wnw712565 0.0 1010392
18:00+14w610594 0.0 1010195
21:00+12wsw45645 0.0 101257
10 may, mon
mon1000:00+12s335621 0.0 101217
03:00+11se225281 0.0 101211
06:00+12ene0054100 0.0 101310
09:00+11n4787100 1.6 1016272
12:00+10e61092100 14.7 1014625
15:00+9ese71089100 25.1 1014346
18:00+11e5785100 0.6 1013306
21:00+11e5890100 1.9 1014258
11 may, tue
tue1100:00+12ene4794100 1.8 1014228
03:00+12e4794100 2.9 1014196
06:00+12e5894100 1.3 1014231
09:00+14e687742 1.3 1014262
12:00+17ese69570 0.0 1014386
15:00+19se795181 0.0 1012442
18:00+17se695799 0.0 1012210
21:00+16ese61155100 0.1 1014277
12 may, wed
wed1200:00+15ese71156100 0.0 1014248
03:00+13e596780 0.0 1014161
06:00+12e610705 0.0 1014177
09:00+15ese7960100 0.0 1014297
12:00+18se5963100 0.0 1013317
15:00+19se3364100 0.0 1011238
18:00+19nne2366100 0.0 101046
21:00+18ne3372100 0.0 101119